Date String (YYYY-MM-DD hh:mm:ss) UTC,Instrument flags,Ambient pressure (hPa),Sample flow (lpm),Bypass flow (lpm),Sample temperature (°C),Ambient temperature (°C),ASC tube jacket temperature (°C),LED temperature (°C),Box temperature (°C),Sample RH (%),Span deviation,Mass concentration (μg/m³),Mass concentration (μg/m³),Mass concentration (μg/m³)
DateTimeUTC,F1_M11,P_M11,Q1_M11,Q2_M11,T1_M11,T2_M11,T3_M11,T4_M11,T5_M11,U1_M11,ZSPAN_M11,X2_M11,X0_M11,X1_M11
2022-04-19 06:00:00,,0822.9,5.00,0.00,28.5,27.5,00.0,37.5,30.2,10.2,0000.0,0007.38,0022.14,0004.92
2022-04-19 06:01:00,,0822.8,4.99,0.00,28.5,27.5,00.0,37.5,30.2,10.2,0000.0,0007.41,0021.50,0004.94
2022-04-19 06:02:00,,0822.9,5.00,0.00,28.5,27.4,00.0,37.5,30.2,10.2,0000.0,0007.38,0021.74,0004.95
2022-04-19 06:03:00,,0822.8,5.01,0.00,28.4,27.4,00.0,37.5,30.2,10.2,0000.0,0007.37,0021.50,0004.95
2022-04-19 06:04:00,,0822.8,5.00,0.00,28.4,27.4,00.0,37.5,30.2,10.2,0000.0,0007.38,0021.67,0004.97
2022-04-19 06:05:00,,0822.7,4.99,0.00,28.4,27.4,00.0,37.5,30.2,10.2,0000.0,0007.46,0022.92,0004.97
2022-04-19 06:06:00,,0822.7,5.00,0.00,28.4,27.4,00.0,37.5,30.2,10.2,0000.0,0007.52,0023.25,0004.98
2022-04-19 06:07:00,,0822.7,5.02,0.00,28.4,27.4,00.0,37.4,30.2,10.2,0000.0,0007.50,0022.75,0004.98
2022-04-19 06:08:00,,0822.7,5.00,0.00,28.4,27.4,00.0,37.4,30.2,10.2,0000.0,0007.54,0022.05,0005.00
2022-04-19 06:09:00,,0822.7,5.00,0.00,28.4,27.4,00.0,37.4,30.2,10.2,0000.0,0007.50,0021.82,0004.97
2022-04-19 06:10:00,,0822.6,5.00,0.00,28.4,27.4,00.0,37.4,30.1,10.2,0000.0,0007.52,0021.64,0004.98
2022-04-19 06:11:00,,0822.6,5.01,0.00,28.4,27.3,00.0,37.4,30.1,10.2,0000.0,0007.50,0021.16,0004.99
2022-04-19 06:12:00,,0822.6,5.01,0.00,28.4,27.3,00.0,37.4,30.1,10.2,0004.7,0007.54,0020.67,0004.99
2022-04-19 06:13:00,,0822.6,5.00,0.00,28.4,27.3,00.0,37.4,30.1,10.2,0008.0,0007.54,0020.74,0004.97
2022-04-19 06:14:00,,0822.6,5.01,0.00,28.4,27.3,00.0,37.4,30.1,10.2,0008.0,0007.52,0021.02,0004.97
2022-04-19 06:15:00,,0822.6,5.00,0.00,28.4,27.4,00.0,37.4,30.1,10.2,0008.2,0007.46,0020.69,0004.97
2022-04-19 06:16:00,,0822.7,4.99,0.00,28.4,27.3,00.0,37.4,30.1,10.2,0004.0,0007.46,0019.54,0004.99
2022-04-19 06:17:00,,0822.6,5.01,0.00,28.4,27.3,00.0,37.4,30.1,10.2,0003.3,0007.52,0020.08,0005.02
2022-04-19 06:18:00,,0822.6,4.99,0.00,28.4,27.3,00.0,37.4,30.1,10.2,0000.4,0007.58,0020.62,0005.04
2022-04-19 06:19:00,,0822.7,5.00,0.00,28.4,27.3,00.0,37.3,30.1,10.2,0000.0,0007.54,0020.42,0005.04
2022-04-19 06:20:00,,0822.7,5.00,0.00,28.4,27.3,00.0,37.3,30.1,10.2,0000.0,0007.52,0021.52,0005.06
2022-04-19 06:21:00,,0822.6,5.00,0.00,28.3,27.3,00.0,37.3,30.1,10.2,0000.0,0007.46,0021.35,0005.06
2022-04-19 06:22:00,,0822.6,5.02,0.00,28.3,27.3,00.0,37.3,30.1,10.2,0000.0,0007.34,0021.27,0005.04
2022-04-19 06:23:00,,0822.6,5.00,0.00,28.3,27.3,00.0,37.3,30.1,10.2,0000.0,0007.33,0021.94,0005.04
2022-04-19 06:24:00,,0822.6,5.00,0.00,28.3,27.3,00.0,37.3,30.1,10.2,0000.0,0007.38,0022.91,0005.06
2022-04-19 06:25:00,,0822.6,4.99,0.00,28.3,27.3,00.0,37.3,30.1,10.2,0000.0,0007.54,0022.95,0005.08
2022-04-19 06:26:00,,0822.5,5.00,0.00,28.3,27.3,00.0,37.3,30.0,10.3,0000.0,0007.61,0023.51,0005.11
2022-04-19 06:27:00,,0822.5,5.01,0.00,28.3,27.2,00.0,37.3,30.0,10.3,-000.1,0007.64,0023.74,0005.14
2022-04-19 06:28:00,,0822.6,4.99,0.00,28.3,27.2,00.0,37.3,30.0,10.3,-000.0,0007.61,0023.61,0005.14
2022-04-19 06:29:00,,0822.5,5.00,0.00,28.3,27.2,00.0,37.3,30.0,10.3,0000.5,0007.65,0023.58,0005.17
2022-04-19 06:30:00,,0822.5,5.00,0.00,28.3,27.2,00.0,37.3,30.0,10.3,0000.2,0007.78,0024.11,0005.22
2022-04-19 06:31:00,,0822.6,5.00,0.00,28.2,27.2,00.0,37.3,30.0,10.3,0000.0,0007.88,0023.54,0005.26
2022-04-19 06:32:00,,0822.6,4.99,0.00,28.2,27.2,00.0,37.2,30.0,10.3,-000.0,0008.03,0023.70,0005.31
2022-04-19 06:33:00,,0822.5,5.02,0.00,28.2,27.2,00.0,37.2,30.0,10.3,0000.8,0008.17,0024.00,0005.37
2022-04-19 06:34:00,,0822.5,4.99,0.00,28.2,27.2,00.0,37.2,30.0,10.3,0002.0,0008.17,0023.40,0005.43
2022-04-19 06:35:00,,0822.4,5.00,0.00,28.2,27.2,00.0,37.2,30.0,10.4,0003.2,0008.19,0022.62,0005.49
2022-04-19 06:36:00,,0822.4,5.00,0.00,28.2,27.2,00.0,37.2,30.0,10.4,0003.0,0008.12,0023.75,0005.54
2022-04-19 06:37:00,,0822.4,5.01,0.00,28.2,27.2,00.0,37.2,30.0,10.3,0003.0,0008.18,0024.23,0005.56
2022-04-19 06:38:00,,0822.3,5.00,0.00,28.2,27.2,00.0,37.2,30.0,10.3,0003.8,0008.17,0025.77,0005.58
2022-04-19 06:39:00,,0822.3,5.00,0.00,28.2,27.2,00.0,37.2,29.9,10.3,0003.7,0008.23,0025.78,0005.61
2022-04-19 06:40:00,,0822.4,4.99,0.00,28.2,27.1,00.0,37.2,29.9,10.3,0003.6,0008.30,0025.16,0005.63
2022-04-19 06:41:00,,0822.3,5.00,0.00,28.1,27.1,00.0,37.2,29.9,10.4,0004.2,0008.22,0025.27,0005.63
2022-04-19 06:42:00,,0822.4,5.00,0.00,28.1,27.1,00.0,37.2,29.9,10.3,0004.3,0008.20,0024.83,0005.62
2022-04-19 06:43:00,,0822.4,5.01,0.00,28.1,27.1,00.0,37.1,29.9,10.3,0004.5,0008.03,0024.86,0005.60
2022-04-19 06:44:00,,0822.4,5.00,0.00,28.1,27.1,00.0,37.1,29.9,10.3,0004.5,0008.05,0025.71,0005.60
2022-04-19 06:45:00,,0822.3,5.00,0.00,28.1,27.1,00.0,37.1,29.9,10.3,0003.8,0008.11,0025.78,0005.60
2022-04-19 06:46:00,,0822.3,5.00,0.00,28.1,27.1,00.0,37.1,29.9,10.3,0003.3,0008.17,0025.17,0005.60
2022-04-19 06:47:00,,0822.3,4.99,0.00,28.1,27.1,00.0,37.1,29.9,10.3,0003.4,0008.17,0024.06,0005.59
2022-04-19 06:48:00,,0822.2,5.02,0.00,28.1,27.1,00.0,37.1,29.9,10.3,0003.1,0008.19,0023.77,0005.59
2022-04-19 06:49:00,,0822.2,5.00,0.00,28.1,27.1,00.0,37.1,29.9,10.4,0002.3,0008.20,0022.69,0005.58
2022-04-19 06:50:00,,0822.3,5.00,0.00,28.1,27.1,00.0,37.1,29.9,10.4,0002.4,0008.19,0022.24,0005.56
2022-04-19 06:51:00,,0822.3,5.00,0.00,28.1,27.1,00.0,37.1,29.9,10.4,0002.5,0008.18,0023.39,0005.55
2022-04-19 06:52:00,,0822.3,5.00,0.00,28.1,27.1,00.0,37.1,29.9,10.5,0001.8,0008.22,0025.96,0005.53
2022-04-19 06:53:00,,0822.2,5.01,0.00,28.1,27.0,00.0,37.1,29.9,10.5,0002.7,0008.21,0026.96,0005.54
2022-04-19 06:54:00,,0822.2,5.00,0.00,28.1,27.0,00.0,37.1,29.9,10.5,0002.6,0008.19,0027.07,0005.54
2022-04-19 06:55:00,,0822.2,5.00,0.00,28.1,27.0,00.0,37.1,29.9,10.5,0002.6,0008.19,0026.22,0005.55
2022-04-19 06:56:00,,0822.2,4.99,0.00,28.1,27.1,00.0,37.0,29.9,10.5,0002.7,0008.17,0027.72,0005.55
2022-04-19 06:57:00,,0822.2,5.00,0.00,28.1,27.0,00.0,37.0,29.9,10.5,0003.6,0008.13,0029.43,0005.53
2022-04-19 06:58:00,,0822.2,5.01,0.00,28.1,27.0,00.0,37.0,29.9,10.4,0002.3,0008.07,0030.41,0005.46
2022-04-19 06:59:00,,0822.3,5.00,0.00,28.1,27.1,00.0,37.0,29.9,10.5,0002.7,0008.00,0030.59,0005.43
